When you browse on this site, cookies collect data to enhance your experience and personalize the content and advertising you see.
Visit our Privacy Policy to learn more. By continuing to use the site, you agree to this use of cookies and data.

Hourly Weather Kumasi

Today, 18 September, Friday

Time Temperature Precipitation Wind Pressure Humidity
00:00 +25°C° 0 mm 2 mps 757 mmHg 88%
01:00 +25°C° 0 mm 2 mps 757 mmHg 89%
02:00 +25°C° 0 mm 2 mps 756 mmHg 89%
03:00 +25°C° 0 mm 2 mps 756 mmHg 89%
04:00 +25°C° 0 mm 2 mps 757 mmHg 89%
05:00 +25°C° 0 mm 2 mps 757 mmHg 89%
06:00 +25°C° 0 mm 2 mps 758 mmHg 89%
07:00 +26°C° 0 mm 2 mps 758 mmHg 85%
08:00 +27°C° 0 mm 2 mps 758 mmHg 80%
09:00 +28°C° 0 mm 2 mps 759 mmHg 76%
10:00 +29°C° 0 mm 2 mps 758 mmHg 72%
11:00 +29°C° 0 mm 2 mps 758 mmHg 69%
12:00 +30°C° 0 mm 2 mps 757 mmHg 66%
13:00 +30°C° 0 mm 2 mps 757 mmHg 66%
14:00 +30°C° 0 mm 2 mps 756 mmHg 66%
15:00 +31°C° 0 mm 2 mps 755 mmHg 65%
16:00 +30°C° 0 mm 2 mps 756 mmHg 69%
17:00 +29°C° 0 mm 2 mps 756 mmHg 73%
18:00 +28°C° 0 mm 3 mps 756 mmHg 77%
19:00 +27°C° 0 mm 3 mps 757 mmHg 79%
20:00 +27°C° 0 mm 3 mps 757 mmHg 81%
21:00 +26°C° 0 mm 3 mps 757 mmHg 84%
22:00 +26°C° 0 mm 3 mps 757 mmHg 85%
23:00 +26°C° 0 mm 3 mps 757 mmHg 86%

Tomorrow, 19 September, Saturday

Time Temperature Precipitation Wind Pressure Humidity
00:00 +25°C° 0 mm 3 mps 757 mmHg 88%
01:00 +25°C° 0.7 mm 2 mps 757 mmHg 89%
02:00 +25°C° 0.7 mm 2 mps 757 mmHg 91%
03:00 +25°C° 0.7 mm 2 mps 756 mmHg 93%
04:00 +25°C° 1.3 mm 2 mps 757 mmHg 93%
05:00 +25°C° 1.3 mm 2 mps 757 mmHg 93%
06:00 +25°C° 1.3 mm 1 mps 757 mmHg 94%
07:00 +25°C° 1.1 mm 2 mps 758 mmHg 94%
08:00 +25°C° 1.1 mm 2 mps 758 mmHg 93%
09:00 +25°C° 1.1 mm 2 mps 758 mmHg 93%
10:00 +26°C° 0.5 mm 2 mps 758 mmHg 92%
11:00 +26°C° 0.5 mm 2 mps 757 mmHg 90%
12:00 +27°C° 0.5 mm 3 mps 757 mmHg 88%
13:00 +27°C° 0 mm 3 mps 756 mmHg 85%
14:00 +28°C° 0 mm 3 mps 755 mmHg 82%
15:00 +29°C° 0 mm 3 mps 755 mmHg 78%
16:00 +28°C° 0 mm 3 mps 755 mmHg 81%
17:00 +28°C° 0 mm 3 mps 756 mmHg 83%
18:00 +27°C° 0 mm 3 mps 756 mmHg 85%
19:00 +27°C° 0 mm 3 mps 757 mmHg 86%
20:00 +26°C° 0 mm 3 mps 757 mmHg 87%
21:00 +26°C° 0 mm 3 mps 757 mmHg 88%
22:00 +26°C° 0 mm 3 mps 757 mmHg 89%
23:00 +25°C° 0 mm 3 mps 757 mmHg 89%

Day after tomorrow, 20 September, Sunday

Time Temperature Precipitation Wind Pressure Humidity
00:00 +25°C° 0 mm 3 mps 757 mmHg 90%
01:00 +25°C° 0 mm 3 mps 757 mmHg 90%
02:00 +25°C° 0 mm 3 mps 757 mmHg 90%
03:00 +25°C° 0 mm 3 mps 757 mmHg 90%
04:00 +25°C° 0.1 mm 3 mps 757 mmHg 91%
05:00 +25°C° 0.1 mm 2 mps 757 mmHg 91%
06:00 +25°C° 0.1 mm 2 mps 757 mmHg 92%
07:00 +26°C° 0.1 mm 3 mps 757 mmHg 87%
08:00 +27°C° 0.1 mm 3 mps 758 mmHg 83%
09:00 +28°C° 0.1 mm 4 mps 758 mmHg 78%
10:00 +28°C° 0 mm 4 mps 757 mmHg 77%
11:00 +29°C° 0 mm 4 mps 757 mmHg 77%
12:00 +29°C° 0 mm 4 mps 757 mmHg 76%
13:00 +29°C° 0 mm 4 mps 756 mmHg 76%
14:00 +29°C° 0 mm 4 mps 756 mmHg 76%
15:00 +28°C° 0 mm 4 mps 756 mmHg 77%
16:00 +28°C° 0 mm 4 mps 756 mmHg 79%
17:00 +27°C° 0 mm 3 mps 756 mmHg 82%
18:00 +27°C° 0 mm 2 mps 756 mmHg 84%
19:00 +27°C° 0 mm 3 mps 757 mmHg 85%
20:00 +26°C° 0 mm 3 mps 757 mmHg 87%
21:00 +26°C° 0 mm 3 mps 758 mmHg 88%
22:00 +26°C° 0 mm 3 mps 758 mmHg 88%
23:00 +26°C° 0 mm 3 mps 758 mmHg 88%

21 September, Monday

Time Temperature Precipitation Wind Pressure Humidity
00:00 +26°C° 0 mm 2 mps 758 mmHg 88%
01:00 +25°C° 0 mm 2 mps 757 mmHg 90%
02:00 +25°C° 0 mm 2 mps 757 mmHg 91%
03:00 +25°C° 0 mm 2 mps 756 mmHg 92%
04:00 +25°C° 0 mm 2 mps 757 mmHg 92%
05:00 +25°C° 0 mm 3 mps 757 mmHg 92%
06:00 +25°C° 0 mm 3 mps 757 mmHg 92%
07:00 +26°C° 0 mm 3 mps 757 mmHg 86%
08:00 +28°C° 0 mm 3 mps 758 mmHg 80%
09:00 +29°C° 0 mm 4 mps 758 mmHg 74%
10:00 +30°C° 0 mm 4 mps 758 mmHg 70%
11:00 +32°C° 0 mm 4 mps 758 mmHg 66%
12:00 +33°C° 0 mm 4 mps 757 mmHg 62%
13:00 +33°C° 0 mm 4 mps 756 mmHg 63%
14:00 +33°C° 0 mm 5 mps 756 mmHg 63%
15:00 +33°C° 0 mm 5 mps 755 mmHg 64%
16:00 +32°C° 0 mm 5 mps 755 mmHg 68%
17:00 +29°C° 0 mm 5 mps 755 mmHg 72%
18:00 +28°C° 0 mm 5 mps 755 mmHg 77%
19:00 +27°C° 0 mm 4 mps 756 mmHg 79%
20:00 +27°C° 0 mm 4 mps 757 mmHg 81%
21:00 +26°C° 0 mm 3 mps 757 mmHg 83%
22:00 +26°C° 0 mm 3 mps 757 mmHg 84%
23:00 +26°C° 0 mm 3 mps 757 mmHg 85%

22 September, Tuesday

Time Temperature Precipitation Wind Pressure Humidity
00:00 +26°C° 0 mm 3 mps 757 mmHg 86%
01:00 +26°C° 0 mm 3 mps 757 mmHg 85%
02:00 +26°C° 0 mm 4 mps 756 mmHg 84%
03:00 +26°C° 0 mm 4 mps 756 mmHg 83%
04:00 +26°C° 0 mm 3 mps 757 mmHg 84%
05:00 +26°C° 0 mm 3 mps 757 mmHg 85%
06:00 +25°C° 0 mm 3 mps 757 mmHg 86%
07:00 +27°C° 0 mm 3 mps 758 mmHg 81%
08:00 +28°C° 0 mm 4 mps 758 mmHg 76%
09:00 +29°C° 0 mm 4 mps 758 mmHg 71%
10:00 +30°C° 0.3 mm 4 mps 758 mmHg 69%
11:00 +32°C° 0.3 mm 4 mps 757 mmHg 67%
12:00 +33°C° 0.3 mm 4 mps 757 mmHg 64%
13:00 +33°C° 1.3 mm 4 mps 756 mmHg 66%
14:00 +32°C° 1.3 mm 4 mps 755 mmHg 68%
15:00 +32°C° 1.3 mm 5 mps 755 mmHg 70%
16:00 +30°C° 0.7 mm 5 mps 755 mmHg 74%
17:00 +28°C° 0.7 mm 5 mps 755 mmHg 79%
18:00 +27°C° 0.7 mm 4 mps 756 mmHg 83%
19:00 +27°C° 0.1 mm 4 mps 756 mmHg 84%
20:00 +27°C° 0.1 mm 4 mps 757 mmHg 85%
21:00 +26°C° 0.1 mm 4 mps 758 mmHg 86%
22:00 +26°C° 0 mm 4 mps 758 mmHg 87%
23:00 +26°C° 0 mm 4 mps 758 mmHg 87%

23 September, Wednesday

Time Temperature Precipitation Wind Pressure Humidity
00:00 +26°C° 0 mm 4 mps 758 mmHg 87%
01:00 +26°C° 0 mm 3 mps 757 mmHg 88%
02:00 +26°C° 0 mm 3 mps 757 mmHg 88%
03:00 +25°C° 0 mm 3 mps 757 mmHg 89%
04:00 +25°C° 0 mm 2 mps 757 mmHg 89%
05:00 +25°C° 0 mm 2 mps 757 mmHg 89%
06:00 +25°C° 0 mm 2 mps 757 mmHg 90%
07:00 +26°C° 0 mm 3 mps 758 mmHg 84%
08:00 +28°C° 0 mm 3 mps 758 mmHg 78%
09:00 +29°C° 0 mm 3 mps 758 mmHg 72%
10:00 +30°C° 0 mm 3 mps 758 mmHg 68%
11:00 +31°C° 0 mm 3 mps 758 mmHg 64%
12:00 +33°C° 0 mm 4 mps 757 mmHg 60%
13:00 +31°C° 0.2 mm 3 mps 757 mmHg 64%
14:00 +30°C° 0.2 mm 3 mps 756 mmHg 68%
15:00 +30°C° 0.2 mm 3 mps 755 mmHg 72%
16:00 +29°C° 0 mm 3 mps 755 mmHg 74%
17:00 +28°C° 0 mm 4 mps 755 mmHg 76%
18:00 +27°C° 0 mm 4 mps 756 mmHg 77%
19:00 +27°C° 0 mm 4 mps 756 mmHg 78%
20:00 +27°C° 0 mm 4 mps 757 mmHg 79%
21:00 +27°C° 0 mm 4 mps 757 mmHg 80%
22:00 +26°C° 0 mm 3 mps 757 mmHg 82%
23:00 +26°C° 0 mm 3 mps 757 mmHg 84%
Show more